Regional Weather Roundup
Issued by NWS Nashville, TN

Home | Current Version | Previous Version | Text Only | Print | Product List | Glossary On
Versions: 1 2 3 4 5 6 7 8 9 10 11 12 13 14 15 16 17 18 19 20 21 22 23 24 25 26 27 28 29 30 31 32 33 34 35 36 37 38 39 40 41 42 43 44 45 46 47 48 49 50
000
ASUS44 KOHX 041810
RWROHX
MIDDLE TENNESSEE HOURLY WEATHER ROUNDUP
NATIONAL WEATHER SERVICE NASHVILLE TN
1200 PM CST SUN DEC 04 2016

NOTE: "FAIR" INDICATES FEW OR NO CLOUDS BELOW 12,000 FEET WITH
NO SIGNIFICANT WEATHER AND/OR OBSTRUCTIONS TO VISIBILITY.

* THESE REPORTS ARE NOT UNDER NWS QUALITY CONTROL AND MAY NOT
  REPORT WEATHER SUCH AS PRECIPITATION AND FOG.


TNZ005>011-023>034-057-059-062>066-078-080-041900
...NORTHERN MIDDLE TENNESSEE...

CITY           SKY/WX    TMP DP  RH WIND       PRES   REMARKS
CLARKSVILLE    CLOUDY    45  43  93 S6        29.96F
CROSSVILLE     LGT RAIN  42  41  96 SE7       30.00F FOG
LEBANON        CLOUDY    46  45  97 SE6       29.95F
NASHVILLE      CLOUDY    48  44  86 S12       29.96F
PORTLAND       PTSUNNY   46  45  93 S12       29.96F FOG
SMYRNA         CLOUDY    47  45  93 SE12      29.98F
SPRINGFIELD    CLOUDY    46  45  93 SE7G13    29.94F
WEST NASHVILLE CLOUDY    45  45 100 CALM      29.97F
$$
TNZ056-058-060-061-075>077-079-093>097-041900
...SOUTHERN MIDDLE TENNESSEE...

CITY           SKY/WX    TMP DP  RH WIND       PRES   REMARKS
COLUMBIA       CLOUDY   N/A N/A N/A S5        29.94F
FAYETTEVILLE   CLOUDY    46  46 100 SE7       29.96F FOG
MCMINNVILLE    CLOUDY    46  46 100 SE5       29.97F
MURFREESBORO   CLOUDY    47  45  93 SE8       29.96F
SHELBYVILLE    CLOUDY    46  46 100 SE8       29.98F
TULLAHOMA      CLOUDY    45  43  93 SE10      29.97F
WINCHESTER     CLOUDY    45  43  93 SE21      29.96F
$$


...KEY TO REMARKS...
VSB - VISIBILITY IN MILES
WCI - WIND CHILL INDEX
HX  - HEAT INDEX




USA.gov is the U.S. government's official web portal to all federal, state and local government web resources and services.